Weather History for Crestview, FL

Change the Weather History Date:

Wednesday, March 20, 2013

  Actual Average Record
Temperature  
Mean Temperature 53 °F -  
Max Temperature 65 °F - - ()
Min Temperature 40 °F - - ()
Degree Days  
Heating Degree Days 12    
Growing Degree Days 3 (Base 50)    
Moisture  
Dew Point 33 °F    
Average Humidity 45    
Maximum Humidity 72    
Minimum Humidity 27    
Precipitation  
Precipitation 0.00 in - - ()
Sea Level Pressure  
Sea Level Pressure 30.02 in    
Wind  
Wind Speed 6 mph (North)    
Max Wind Speed 12 mph    
Max Gust Speed 20 mph    
Visibility 10 miles    
Events Rain    
T = Trace of Precipitation, MM = Missing Value Source: NWS Daily Summary

Daily Weather History Graph

Daily Weather History Graph

Search for Another Location

Airport:

Trip Planner

Search our weather history database for the weather conditions in past years. The results will help you decide how hot, cold, wet, or windy it might be!

Date:

Astronomy

Mar. 20, 2013 Rise Set
Actual Time 6:49 AM CDT 6:57 PM CDT
Civil Twilight 6:25 AM CDT 7:21 PM CDT
Nautical Twilight 5:57 AM CDT 7:49 PM CDT
Astronomical Twilight 5:29 AM CDT 8:18 PM CDT
Moon 12:53 PM CDT (3/20) 2:07 AM CDT (3/20)
Length of Visible Light 12h 56m
Length of Day
12h 08m
First Quarter, 59% of the Moon is Illuminated
Mar 20
First Quarter
Mar 27
Full
Apr 2
Last Quarter
Apr 10
New
Apr 18
First Quarter

Hourly Weather History & Observations

Time (CDT) Temp. Dew Point Humidity Pressure Visibility Wind Dir Wind Speed Gust Speed Precip Events Conditions
12:07 AM 53.6 °F 44.6 °F 72% 30.01 in 10.0 mi North 3.5 mph - N/A Rain Light Rain
12:15 AM 55.4 °F 44.6 °F 67% 30.01 in 10.0 mi North 5.8 mph - N/A   Clear
12:58 AM 55.9 °F 41.9 °F 59% 30.01 in 10.0 mi NNE 5.8 mph - 0.00 in   Clear
1:58 AM 56.8 °F 37.6 °F 49% 30.00 in 10.0 mi NE 5.8 mph - N/A   Partly Cloudy
2:58 AM 57.7 °F 34.5 °F 42% 29.98 in 10.0 mi NNE 8.1 mph - N/A   Clear
3:58 AM 57.2 °F 34.0 °F 42% 29.99 in 10.0 mi NNE 8.1 mph - N/A   Overcast
4:58 AM 56.8 °F 33.6 °F 42% 29.99 in 10.0 mi NNE 6.9 mph - N/A   Clear
5:58 AM 55.6 °F 34.2 °F 44% 30.04 in 10.0 mi NNE 8.1 mph - N/A   Mostly Cloudy
6:58 AM 54.5 °F 33.8 °F 46% 30.08 in 10.0 mi NNE 8.1 mph - N/A   Scattered Clouds
7:58 AM 54.3 °F 32.5 °F 44% 30.09 in 10.0 mi NE 9.2 mph - N/A   Partly Cloudy
8:55 AM 56.5 °F 30.7 °F 38% 30.09 in 10.0 mi NE 10.4 mph - N/A   Mostly Cloudy
9:55 AM 58.5 °F 30.4 °F 34% 30.09 in 10.0 mi NNE 11.5 mph 19.6 mph N/A   Mostly Cloudy
10:55 AM 60.8 °F 30.0 °F 31% 30.07 in 10.0 mi NE 10.4 mph - N/A   Mostly Cloudy
11:55 AM 62.6 °F 30.4 °F 30% 30.07 in 10.0 mi NE 4.6 mph - N/A   Mostly Cloudy
12:57 PM 61.9 °F 30.9 °F 31% 30.05 in 10.0 mi North 10.4 mph - N/A   Mostly Cloudy
1:55 PM 62.2 °F 33.4 °F 34% 30.04 in 10.0 mi NNW 10.4 mph - N/A   Overcast
2:58 PM 63.1 °F 31.5 °F 30% 30.02 in 10.0 mi NNW 6.9 mph - N/A   Overcast
3:55 PM 64.2 °F 31.8 °F 30% 30.00 in 10.0 mi NNW 11.5 mph - N/A   Mostly Cloudy
4:55 PM 65.5 °F 31.1 °F 28% 29.99 in 10.0 mi NNW 11.5 mph - N/A   Partly Cloudy
5:55 PM 63.9 °F 28.9 °F 27% 29.98 in 10.0 mi NNW 9.2 mph - N/A   Partly Cloudy
6:55 PM 59.2 °F 29.1 °F 32% 29.98 in 10.0 mi North 6.9 mph - N/A   Clear
7:55 PM 53.8 °F 29.7 °F 40% 30.00 in 10.0 mi NNW 4.6 mph - N/A   Clear
8:55 PM 50.5 °F 30.2 °F 46% 30.02 in 10.0 mi NNW 3.5 mph - N/A   Clear
9:55 PM 48.2 °F 31.6 °F 53% 30.01 in 10.0 mi NW 1.2 mph - N/A   Clear
10:53 PM 41.0 °F 32.0 °F 70% 30.01 in 10.0 mi Calm Calm - N/A   Clear
10:55 PM 41.9 °F 32.9 °F 70% 30.01 in 10.0 mi Calm Calm - N/A   Clear
11:55 PM 40.1 °F 31.8 °F 72% 30.02 in 10.0 mi Calm Calm - N/A   Clear